Time,TemperatureF,DewpointF,PressureIn,WindDirection,WindDirectionDegrees,WindSpeedMPH,WindSpeedGustMPH,Humidity,HourlyPrecipIn,Conditions,Clouds,dailyrainin,SoftwareType,DateUTC
2013-01-30 00:00:00,31.5,28.3,29.59,NNW,337,7.7,11.8,88,0.00,,,0.00,WUHU216HW,2013-01-30 06:00:00,
2013-01-30 00:05:00,31.3,28.3,29.62,NNW,346,8.3,13.1,89,0.00,,,0.00,WUHU216HW,2013-01-30 06:05:00,
2013-01-30 00:10:00,31.2,28.2,29.62,NNW,348,6.5,9.8,89,0.00,,,0.00,WUHU216HW,2013-01-30 06:10:00,
2013-01-30 00:15:00,31.2,28.2,29.62,NNW,337,6.3,10.8,89,0.00,,,0.00,WUHU216HW,2013-01-30 06:15:00,
2013-01-30 00:20:00,31.2,28.2,29.63,NNW,338,7.6,11.0,89,0.00,,,0.00,WUHU216HW,2013-01-30 06:20:00,
2013-01-30 00:25:00,31.2,28.5,29.64,NNW,342,6.0,11.6,90,0.00,,,0.00,WUHU216HW,2013-01-30 06:25:00,
2013-01-30 00:30:00,31.0,28.0,29.63,North,352,6.3,13.3,89,0.00,,,0.00,WUHU216HW,2013-01-30 06:30:00,
2013-01-30 00:35:00,30.8,27.9,29.63,NNW,335,10.3,13.3,89,0.00,,,0.00,WUHU216HW,2013-01-30 06:35:00,
2013-01-30 00:40:00,30.3,27.1,29.64,NNW,345,10.4,12.3,88,0.00,,,0.00,WUHU216HW,2013-01-30 06:40:00,
2013-01-30 00:45:00,30.3,27.4,29.64,NNW,345,7.1,10.2,89,0.00,,,0.00,WUHU216HW,2013-01-30 06:45:00,
2013-01-30 00:50:00,30.0,27.2,29.64,North,350,7.7,10.6,89,0.00,,,0.00,WUHU216HW,2013-01-30 06:50:00,
2013-01-30 00:55:00,30.0,27.2,29.63,NNW,339,8.4,12.1,89,0.00,,,0.00,WUHU216HW,2013-01-30 06:55:00,
2013-01-30 01:00:00,29.6,26.8,29.62,NNW,343,8.7,13.9,89,0.00,,,0.00,WUHU216HW,2013-01-30 07:00:00,
2013-01-30 01:05:00,29.3,26.5,29.62,NNW,348,11.6,18.1,89,0.00,,,0.00,WUHU216HW,2013-01-30 07:05:00,
2013-01-30 01:10:00,29.3,26.5,29.62,NNW,334,8.0,12.9,89,0.00,,,0.00,WUHU216HW,2013-01-30 07:10:00,
2013-01-30 01:15:00,29.1,26.5,29.62,North,352,9.8,14.7,90,0.00,,,0.00,WUHU216HW,2013-01-30 07:15:00,
2013-01-30 01:20:00,28.9,26.3,29.62,NNW,337,11.2,16.7,90,0.00,,,0.00,WUHU216HW,2013-01-30 07:20:00,
2013-01-30 01:25:00,28.5,25.7,29.62,NNW,348,9.4,15.4,89,0.00,,,0.00,WUHU216HW,2013-01-30 07:25:00,
2013-01-30 01:30:00,28.4,25.8,29.62,NNW,347,10.5,14.4,90,0.00,,,0.00,WUHU216HW,2013-01-30 07:30:00,
2013-01-30 01:35:00,28.2,25.9,29.62,North,351,9.6,12.3,91,0.00,,,0.00,WUHU216HW,2013-01-30 07:35:00,
2013-01-30 01:40:00,28.2,25.9,29.62,NNW,342,10.9,14.7,91,0.00,,,0.00,WUHU216HW,2013-01-30 07:40:00,
2013-01-30 01:45:00,27.8,25.5,29.63,NNW,335,12.2,16.4,91,0.00,,,0.00,WUHU216HW,2013-01-30 07:45:00,
2013-01-30 01:50:00,27.6,25.3,29.63,NNW,345,10.5,13.1,91,0.00,,,0.00,WUHU216HW,2013-01-30 07:50:00,
2013-01-30 01:55:00,27.6,25.3,29.63,NNW,344,10.0,14.9,91,0.00,,,0.00,WUHU216HW,2013-01-30 07:55:00,
2013-01-30 02:00:00,27.5,25.2,29.64,NNW,347,10.6,18.1,91,0.00,,,0.00,WUHU216HW,2013-01-30 08:00:00,
2013-01-30 02:05:00,27.5,25.2,29.64,NNW,343,9.7,14.7,91,0.00,,,0.00,WUHU216HW,2013-01-30 08:05:00,
2013-01-30 02:10:00,27.5,25.2,29.64,North,353,6.4,8.3,91,0.00,,,0.00,WUHU216HW,2013-01-30 08:10:00,
2013-01-30 02:15:00,27.5,25.2,29.64,North,353,6.5,10.6,91,0.00,,,0.00,WUHU216HW,2013-01-30 08:15:00,
2013-01-30 02:20:00,27.3,25.0,29.64,NNW,340,10.3,12.3,91,0.00,,,0.00,WUHU216HW,2013-01-30 08:20:00,
2013-01-30 02:25:00,27.1,24.8,29.64,NNW,343,10.1,15.4,91,0.00,,,0.00,WUHU216HW,2013-01-30 08:25:00,
2013-01-30 02:30:00,27.1,24.8,29.64,NNW,336,11.4,15.4,91,0.00,,,0.00,WUHU216HW,2013-01-30 08:30:00,
2013-01-30 02:35:00,26.9,24.6,29.65,NNW,348,9.9,12.9,91,0.00,,,0.00,WUHU216HW,2013-01-30 08:35:00,
2013-01-30 02:40:00,26.9,24.9,29.65,North,353,11.1,18.3,92,0.00,,,0.00,WUHU216HW,2013-01-30 08:40:00,
2013-01-30 02:45:00,26.7,24.4,29.66,North,349,9.9,13.3,91,0.00,,,0.00,WUHU216HW,2013-01-30 08:45:00,
2013-01-30 02:50:00,26.4,24.1,29.67,NNW,338,9.2,11.3,91,0.00,,,0.00,WUHU216HW,2013-01-30 08:50:00,
2013-01-30 02:55:00,26.4,24.1,29.67,NNW,332,8.3,11.3,91,0.00,,,0.00,WUHU216HW,2013-01-30 08:55:00,
2013-01-30 03:00:00,26.2,23.6,29.67,NNW,331,8.9,10.2,90,0.00,,,0.00,WUHU216HW,2013-01-30 09:00:00,
2013-01-30 03:05:00,26.2,23.9,29.67,North,11,8.2,9.8,91,0.00,,,0.00,WUHU216HW,2013-01-30 09:05:00,
2013-01-30 03:10:00,26.2,23.9,29.67,North,354,8.5,14.1,91,0.00,,,0.00,WUHU216HW,2013-01-30 09:10:00,
2013-01-30 03:15:00,26.2,23.9,29.68,NW,325,7.0,12.1,91,0.00,,,0.00,WUHU216HW,2013-01-30 09:15:00,
2013-01-30 03:20:00,26.2,23.9,29.68,NNW,348,7.5,11.8,91,0.00,,,0.00,WUHU216HW,2013-01-30 09:20:00,
2013-01-30 03:25:00,26.0,23.7,29.68,North,353,4.9,6.9,91,0.00,,,0.00,WUHU216HW,2013-01-30 09:25:00,
2013-01-30 03:30:00,25.8,23.5,29.68,NNW,340,5.9,11.3,91,0.00,,,0.00,WUHU216HW,2013-01-30 09:30:00,
2013-01-30 03:35:00,25.7,23.4,29.68,NNW,342,10.1,13.9,91,0.00,,,0.00,WUHU216HW,2013-01-30 09:35:00,
2013-01-30 03:40:00,25.5,23.5,29.68,NNW,332,7.2,12.3,92,0.00,,,0.00,WUHU216HW,2013-01-30 09:40:00,
2013-01-30 03:45:00,25.5,23.2,29.68,NNW,344,6.5,9.0,91,0.00,,,0.00,WUHU216HW,2013-01-30 09:45:00,
2013-01-30 03:50:00,25.5,23.2,29.67,NNW,331,7.1,11.3,91,0.00,,,0.00,WUHU216HW,2013-01-30 09:50:00,
2013-01-30 03:55:00,25.3,23.0,29.68,NNW,335,9.1,12.6,91,0.00,,,0.00,WUHU216HW,2013-01-30 09:55:00,
2013-01-30 04:00:00,25.1,22.8,29.68,NNW,340,10.4,13.1,91,0.00,,,0.00,WUHU216HW,2013-01-30 10:00:00,
2013-01-30 04:05:00,25.1,22.8,29.68,NNW,345,8.2,12.3,91,0.00,,,0.00,WUHU216HW,2013-01-30 10:05:00,
2013-01-30 04:11:00,25.1,22.8,29.68,NW,320,8.5,10.0,91,0.00,,,0.00,WUHU216HW,2013-01-30 10:11:00,
2013-01-30 04:16:00,24.9,22.6,29.68,North,351,7.7,11.0,91,0.00,,,0.00,WUHU216HW,2013-01-30 10:16:00,
2013-01-30 04:21:00,24.9,22.6,29.68,NNW,342,10.0,14.7,91,0.00,,,0.00,WUHU216HW,2013-01-30 10:21:00,
2013-01-30 04:26:00,24.6,22.1,29.68,North,1,10.8,16.2,90,0.00,,,0.00,WUHU216HW,2013-01-30 10:26:00,
2013-01-30 04:31:00,24.4,21.9,29.68,NNW,342,8.6,13.9,90,0.00,,,0.00,WUHU216HW,2013-01-30 10:31:00,
2013-01-30 04:36:00,24.2,21.7,29.68,NNW,347,10.1,15.2,90,0.00,,,0.00,WUHU216HW,2013-01-30 10:36:00,
2013-01-30 04:41:00,24.0,21.5,29.69,NNW,334,11.6,13.7,90,0.00,,,0.00,WUHU216HW,2013-01-30 10:41:00,
2013-01-30 04:46:00,23.9,21.4,29.68,North,351,11.1,16.7,90,0.00,,,0.00,WUHU216HW,2013-01-30 10:46:00,
2013-01-30 04:51:00,23.9,21.4,29.69,NNW,344,10.7,17.7,90,0.00,,,0.00,WUHU216HW,2013-01-30 10:51:00,
2013-01-30 04:56:00,23.7,21.2,29.69,NNW,346,9.9,13.9,90,0.00,,,0.00,WUHU216HW,2013-01-30 10:56:00,
2013-01-30 05:01:00,23.7,21.2,29.69,NNW,345,7.0,11.3,90,0.00,,,0.00,WUHU216HW,2013-01-30 11:01:00,
2013-01-30 05:06:00,23.7,21.2,29.69,NNW,340,10.2,13.7,90,0.00,,,0.00,WUHU216HW,2013-01-30 11:06:00,
2013-01-30 05:11:00,23.7,21.2,29.69,NNW,344,8.9,13.3,90,0.00,,,0.00,WUHU216HW,2013-01-30 11:11:00,
2013-01-30 05:16:00,23.5,21.0,29.69,North,349,8.2,12.3,90,0.00,,,0.00,WUHU216HW,2013-01-30 11:16:00,
2013-01-30 05:21:00,23.5,21.0,29.70,NNW,346,8.7,11.6,90,0.00,,,0.00,WUHU216HW,2013-01-30 11:21:00,
2013-01-30 05:26:00,23.5,21.0,29.69,North,357,7.3,11.3,90,0.00,,,0.00,WUHU216HW,2013-01-30 11:26:00,
2013-01-30 05:31:00,23.7,21.2,29.70,North,351,5.9,9.0,90,0.00,,,0.00,WUHU216HW,2013-01-30 11:31:00,
2013-01-30 05:36:00,23.9,21.4,29.70,North,355,6.4,7.9,90,0.00,,,0.00,WUHU216HW,2013-01-30 11:36:00,
2013-01-30 05:41:00,23.9,21.4,29.70,North,6,5.4,9.8,90,0.00,,,0.00,WUHU216HW,2013-01-30 11:41:00,
2013-01-30 05:46:00,23.9,21.4,29.70,NNW,341,8.8,12.9,90,0.00,,,0.00,WUHU216HW,2013-01-30 11:46:00,
2013-01-30 05:51:00,23.9,21.1,29.70,North,349,9.3,18.3,89,0.00,,,0.00,WUHU216HW,2013-01-30 11:51:00,
2013-01-30 05:56:00,23.5,20.7,29.70,NNW,348,10.7,15.6,89,0.00,,,0.00,WUHU216HW,2013-01-30 11:56:00,
2013-01-30 06:01:00,23.3,20.2,29.71,NNW,340,10.8,19.8,88,0.00,,,0.00,WUHU216HW,2013-01-30 12:01:00,
2013-01-30 06:06:00,23.1,20.3,29.71,North,352,10.7,18.5,89,0.00,,,0.00,WUHU216HW,2013-01-30 12:06:00,
2013-01-30 06:11:00,23.0,19.9,29.71,NNW,347,9.6,14.9,88,0.00,,,0.00,WUHU216HW,2013-01-30 12:11:00,
2013-01-30 06:16:00,22.8,19.7,29.71,NNW,344,12.4,16.4,88,0.00,,,0.00,WUHU216HW,2013-01-30 12:16:00,
2013-01-30 06:21:00,22.8,19.7,29.71,NNW,338,9.4,13.1,88,0.00,,,0.00,WUHU216HW,2013-01-30 12:21:00,
2013-01-30 06:26:00,22.8,19.7,29.71,NNW,332,11.2,18.1,88,0.00,,,0.00,WUHU216HW,2013-01-30 12:26:00,
2013-01-30 06:31:00,22.8,20.0,29.71,NNW,341,9.0,12.9,89,0.00,,,0.00,WUHU216HW,2013-01-30 12:31:00,
2013-01-30 06:36:00,22.8,19.7,29.71,NNW,338,10.7,17.0,88,0.00,,,0.00,WUHU216HW,2013-01-30 12:36:00,
2013-01-30 06:41:00,22.8,19.7,29.71,NNW,334,8.5,12.3,88,0.00,,,0.00,WUHU216HW,2013-01-30 12:41:00,
2013-01-30 06:46:00,22.8,19.7,29.71,NNW,329,11.3,17.7,88,0.00,,,0.00,WUHU216HW,2013-01-30 12:46:00,
2013-01-30 06:51:00,23.0,19.7,29.71,NNW,328,11.4,17.7,87,0.00,,,0.00,WUHU216HW,2013-01-30 12:51:00,
2013-01-30 06:56:00,23.0,19.1,29.71,NNW,334,8.9,14.1,85,0.00,,,0.00,WUHU216HW,2013-01-30 12:56:00,
2013-01-30 07:01:00,23.0,18.9,29.71,NNW,334,11.8,18.5,84,0.00,,,0.00,WUHU216HW,2013-01-30 13:01:00,
2013-01-30 07:06:00,23.0,18.6,29.72,NNW,338,9.5,16.2,83,0.00,,,0.00,WUHU216HW,2013-01-30 13:06:00,
2013-01-30 07:11:00,23.1,18.4,29.72,NNW,337,10.2,16.2,82,0.00,,,0.00,WUHU216HW,2013-01-30 13:11:00,
2013-01-30 07:16:00,23.1,18.1,29.72,NNW,348,8.5,14.7,81,0.00,,,0.00,WUHU216HW,2013-01-30 13:16:00,
2013-01-30 07:21:00,23.3,18.1,29.72,NNW,340,8.9,16.2,80,0.00,,,0.00,WUHU216HW,2013-01-30 13:21:00,
2013-01-30 07:26:00,23.3,18.1,29.72,NNW,347,10.1,16.2,80,0.00,,,0.00,WUHU216HW,2013-01-30 13:26:00,
2013-01-30 07:31:00,23.3,18.1,29.72,NNW,348,8.1,14.7,80,0.00,,,0.00,WUHU216HW,2013-01-30 13:31:00,
2013-01-30 07:36:00,23.3,18.3,29.73,NNW,343,7.8,12.6,81,0.00,,,0.00,WUHU216HW,2013-01-30 13:36:00,
2013-01-30 07:41:00,23.1,18.1,29.73,NNW,336,11.6,23.9,81,0.00,,,0.00,WUHU216HW,2013-01-30 13:41:00,
2013-01-30 07:46:00,23.1,17.9,29.73,NNW,328,14.4,23.9,80,0.00,,,0.00,WUHU216HW,2013-01-30 13:46:00,
2013-01-30 07:51:00,23.0,18.0,29.74,NNW,343,11.7,17.3,81,0.00,,,0.00,WUHU216HW,2013-01-30 13:51:00,
2013-01-30 07:56:00,23.0,18.0,29.74,NNW,333,8.8,14.7,81,0.00,,,0.00,WUHU216HW,2013-01-30 13:56:00,
2013-01-30 08:01:00,23.0,17.8,29.74,NNW,340,9.8,16.0,80,0.00,,,0.00,WUHU216HW,2013-01-30 14:01:00,
2013-01-30 08:06:00,23.0,18.0,29.74,NNW,346,10.3,14.9,81,0.00,,,0.00,WUHU216HW,2013-01-30 14:06:00,
2013-01-30 08:11:00,22.8,17.3,29.74,NNW,335,13.2,19.5,79,0.00,,,0.00,WUHU216HW,2013-01-30 14:11:00,
2013-01-30 08:16:00,22.8,17.3,29.74,NNW,338,12.4,21.6,79,0.00,,,0.00,WUHU216HW,2013-01-30 14:16:00,
2013-01-30 08:21:00,22.8,17.6,29.75,NNW,331,11.1,15.4,80,0.00,,,0.00,WUHU216HW,2013-01-30 14:21:00,
2013-01-30 08:26:00,23.0,17.5,29.75,NNW,331,11.2,24.7,79,0.00,,,0.00,WUHU216HW,2013-01-30 14:26:00,
2013-01-30 08:31:00,23.0,17.5,29.75,NNW,332,12.4,18.3,79,0.00,,,0.00,WUHU216HW,2013-01-30 14:31:00,
2013-01-30 08:36:00,23.0,17.2,29.75,NNW,336,12.0,18.5,78,0.00,,,0.00,WUHU216HW,2013-01-30 14:36:00,
2013-01-30 08:41:00,23.1,17.6,29.75,NNW,334,11.6,16.2,79,0.00,,,0.00,WUHU216HW,2013-01-30 14:41:00,
2013-01-30 08:46:00,23.1,18.1,29.76,NNW,331,10.8,18.1,81,0.00,,,0.00,WUHU216HW,2013-01-30 14:46:00,
2013-01-30 08:51:00,23.0,18.3,29.76,NNW,334,14.0,27.5,82,0.00,,,0.00,WUHU216HW,2013-01-30 14:51:00,
2013-01-30 08:56:00,23.0,18.3,29.77,NNW,333,9.3,14.1,82,0.00,,,0.00,WUHU216HW,2013-01-30 14:56:00,
2013-01-30 09:01:00,22.8,18.1,29.76,NNW,332,10.2,16.7,82,0.00,,,0.00,WUHU216HW,2013-01-30 15:01:00,
2013-01-30 09:06:00,22.8,17.9,29.77,NNW,340,11.2,16.4,81,0.00,,,0.00,WUHU216HW,2013-01-30 15:06:00,
2013-01-30 09:11:00,22.8,17.6,29.77,NNW,333,12.6,20.8,80,0.00,,,0.00,WUHU216HW,2013-01-30 15:11:00,
2013-01-30 09:16:00,22.6,17.1,29.77,NNW,342,11.3,17.3,79,0.00,,,0.00,WUHU216HW,2013-01-30 15:16:00,
2013-01-30 09:21:00,22.4,16.6,29.77,NNW,332,12.2,21.4,78,0.00,,,0.00,WUHU216HW,2013-01-30 15:21:00,
2013-01-30 09:26:00,22.8,17.3,29.77,North,352,9.2,18.1,79,0.00,,,0.00,WUHU216HW,2013-01-30 15:26:00,
2013-01-30 09:31:00,22.8,16.7,29.77,NNW,331,11.5,16.2,77,0.00,,,0.00,WUHU216HW,2013-01-30 15:31:00,
2013-01-30 09:36:00,22.8,16.1,29.77,NNW,331,12.1,19.8,75,0.00,,,0.00,WUHU216HW,2013-01-30 15:36:00,
2013-01-30 09:41:00,23.0,16.3,29.77,NNW,330,10.7,19.1,75,0.00,,,0.00,WUHU216HW,2013-01-30 15:41:00,
2013-01-30 09:46:00,22.8,15.8,29.77,NNW,329,15.7,22.9,74,0.00,,,0.00,WUHU216HW,2013-01-30 15:46:00,
2013-01-30 09:51:00,23.0,16.3,29.77,NNW,341,12.0,17.3,75,0.00,,,0.00,WUHU216HW,2013-01-30 15:51:00,
2013-01-30 09:56:00,23.0,16.3,29.77,NNW,345,9.1,13.9,75,0.00,,,0.00,WUHU216HW,2013-01-30 15:56:00,
2013-01-30 10:01:00,23.0,16.3,29.77,NNW,338,13.2,16.4,75,0.00,,,0.00,WUHU216HW,2013-01-30 16:01:00,
2013-01-30 10:06:00,23.0,16.0,29.77,NNW,329,11.0,18.7,74,0.00,,,0.00,WUHU216HW,2013-01-30 16:06:00,
2013-01-30 10:11:00,23.1,16.1,29.78,NNW,330,11.7,16.7,74,0.00,,,0.00,WUHU216HW,2013-01-30 16:11:00,
2013-01-30 10:16:00,23.1,16.1,29.78,NNW,338,8.9,15.4,74,0.00,,,0.00,WUHU216HW,2013-01-30 16:16:00,
2013-01-30 10:21:00,23.3,16.3,29.78,NNW,337,13.7,19.8,74,0.00,,,0.00,WUHU216HW,2013-01-30 16:21:00,
2013-01-30 10:26:00,23.1,15.8,29.79,NNW,330,11.8,16.0,73,0.00,,,0.00,WUHU216HW,2013-01-30 16:26:00,
2013-01-30 10:31:00,23.5,16.2,29.79,NNW,346,12.6,19.8,73,0.00,,,0.00,WUHU216HW,2013-01-30 16:31:00,
2013-01-30 10:36:00,23.5,15.9,29.79,NNW,332,11.4,16.2,72,0.00,,,0.00,WUHU216HW,2013-01-30 16:36:00,
2013-01-30 10:41:00,23.7,16.1,29.79,NNW,347,10.9,16.7,72,0.00,,,0.00,WUHU216HW,2013-01-30 16:41:00,
2013-01-30 10:46:00,23.9,15.9,29.79,NNW,342,9.4,17.7,71,0.00,,,0.00,WUHU216HW,2013-01-30 16:46:00,
2013-01-30 10:51:00,23.9,15.9,29.79,NNW,334,15.0,19.8,71,0.00,,,0.00,WUHU216HW,2013-01-30 16:51:00,
2013-01-30 10:56:00,24.2,16.5,29.79,NW,322,9.6,17.7,72,0.00,,,0.00,WUHU216HW,2013-01-30 16:56:00,
2013-01-30 11:01:00,24.4,16.7,29.79,NNW,330,9.9,15.4,72,0.00,,,0.00,WUHU216HW,2013-01-30 17:01:00,
2013-01-30 11:06:00,24.6,16.3,29.79,NNW,327,10.7,17.3,70,0.00,,,0.00,WUHU216HW,2013-01-30 17:06:00,
2013-01-30 11:11:00,24.8,16.8,29.79,NNW,332,10.2,18.1,71,0.00,,,0.00,WUHU216HW,2013-01-30 17:11:00,
2013-01-30 11:16:00,24.8,16.8,29.79,NNW,332,9.9,15.6,71,0.00,,,0.00,WUHU216HW,2013-01-30 17:16:00,
2013-01-30 11:21:00,24.8,16.8,29.79,NNW,340,11.3,16.0,71,0.00,,,0.00,WUHU216HW,2013-01-30 17:21:00,
2013-01-30 11:26:00,24.4,16.4,29.79,NNW,336,13.3,19.5,71,0.00,,,0.00,WUHU216HW,2013-01-30 17:26:00,
2013-01-30 11:31:00,24.6,16.9,29.79,NNW,330,10.2,19.5,72,0.00,,,0.00,WUHU216HW,2013-01-30 17:31:00,
2013-01-30 11:36:00,24.6,16.9,29.79,NNW,332,10.9,18.5,72,0.00,,,0.00,WUHU216HW,2013-01-30 17:36:00,
2013-01-30 11:41:00,24.9,17.2,29.79,NW,318,9.1,13.9,72,0.00,,,0.00,WUHU216HW,2013-01-30 17:41:00,
2013-01-30 11:46:00,25.5,17.5,29.79,NNW,339,9.2,13.1,71,0.00,,,0.00,WUHU216HW,2013-01-30 17:46:00,
2013-01-30 11:51:00,25.7,16.7,29.78,NW,319,10.0,15.2,68,0.00,,,0.00,WUHU216HW,2013-01-30 17:51:00,
2013-01-30 11:56:00,25.7,16.3,29.79,NNW,334,10.3,20.0,67,0.00,,,0.00,WUHU216HW,2013-01-30 17:56:00,
2013-01-30 12:01:00,25.3,16.6,29.79,NNW,341,12.6,20.6,69,0.00,,,0.00,WUHU216HW,2013-01-30 18:01:00,
2013-01-30 12:06:00,25.5,17.5,29.79,NW,323,11.7,15.4,71,0.00,,,0.00,WUHU216HW,2013-01-30 18:06:00,
2013-01-30 12:11:00,25.3,17.0,29.79,NNW,343,10.1,17.5,70,0.00,,,0.00,WUHU216HW,2013-01-30 18:11:00,
2013-01-30 12:16:00,24.9,16.6,29.79,North,354,11.0,17.5,70,0.00,,,0.00,WUHU216HW,2013-01-30 18:16:00,
2013-01-30 12:21:00,24.8,16.1,29.79,NNW,336,10.2,14.4,69,0.00,,,0.00,WUHU216HW,2013-01-30 18:21:00,
2013-01-30 12:26:00,24.9,16.6,29.80,NW,324,8.7,13.7,70,0.00,,,0.00,WUHU216HW,2013-01-30 18:26:00,
2013-01-30 12:31:00,25.3,17.3,29.79,NNW,341,8.1,13.3,71,0.00,,,0.00,WUHU216HW,2013-01-30 18:31:00,
2013-01-30 12:36:00,25.3,17.0,29.79,North,350,9.6,14.7,70,0.00,,,0.00,WUHU216HW,2013-01-30 18:36:00,
2013-01-30 12:41:00,25.5,17.5,29.79,NNW,339,8.9,11.3,71,0.00,,,0.00,WUHU216HW,2013-01-30 18:41:00,
2013-01-30 12:46:00,25.7,17.3,29.79,NW,316,8.1,13.7,70,0.00,,,0.00,WUHU216HW,2013-01-30 18:46:00,
2013-01-30 12:51:00,25.7,17.0,29.79,NW,315,7.8,14.7,69,0.00,,,0.00,WUHU216HW,2013-01-30 18:51:00,
2013-01-30 12:56:00,25.7,16.7,29.80,NW,323,8.6,14.1,68,0.00,,,0.00,WUHU216HW,2013-01-30 18:56:00,
2013-01-30 13:01:00,25.5,16.5,29.80,NW,326,11.1,14.9,68,0.00,,,0.00,WUHU216HW,2013-01-30 19:01:00,
2013-01-30 13:06:00,25.7,17.3,29.80,NNW,330,6.8,12.6,70,0.00,,,0.00,WUHU216HW,2013-01-30 19:06:00,
2013-01-30 13:11:00,25.7,16.7,29.80,NW,326,9.4,15.4,68,0.00,,,0.00,WUHU216HW,2013-01-30 19:11:00,
2013-01-30 13:16:00,25.7,16.3,29.80,NNW,336,9.2,16.4,67,0.00,,,0.00,WUHU216HW,2013-01-30 19:16:00,
2013-01-30 13:21:00,25.7,16.7,29.80,North,349,8.5,13.9,68,0.00,,,0.00,WUHU216HW,2013-01-30 19:21:00,
2013-01-30 13:26:00,25.7,16.3,29.79,NNW,330,11.0,15.2,67,0.00,,,0.00,WUHU216HW,2013-01-30 19:26:00,
2013-01-30 13:31:00,25.8,16.4,29.79,NNW,333,10.7,15.4,67,0.00,,,0.00,WUHU216HW,2013-01-30 19:31:00,
2013-01-30 13:36:00,25.7,16.0,29.79,NNW,328,12.8,20.6,66,0.00,,,0.00,WUHU216HW,2013-01-30 19:36:00,
2013-01-30 13:41:00,25.7,15.6,29.79,NNW,339,11.6,19.1,65,0.01,,,0.00,WUHU216HW,2013-01-30 19:41:00,
2013-01-30 13:46:00,25.7,16.7,29.79,North,350,7.5,11.0,68,0.01,,,0.00,WUHU216HW,2013-01-30 19:46:00,
2013-01-30 13:51:00,25.7,16.3,29.79,NNW,330,11.5,18.1,67,0.02,,,0.02,WUHU216HW,2013-01-30 19:51:00,
2013-01-30 13:56:00,25.7,15.6,29.78,NNW,342,11.2,16.4,65,0.02,,,0.02,WUHU216HW,2013-01-30 19:56:00,
2013-01-30 14:01:00,25.5,16.1,29.78,NNW,334,10.2,16.2,67,0.02,,,0.02,WUHU216HW,2013-01-30 20:01:00,
2013-01-30 14:06:00,25.7,16.3,29.78,NW,321,8.0,15.2,67,0.02,,,0.02,WUHU216HW,2013-01-30 20:06:00,
2013-01-30 14:11:00,26.0,15.9,29.79,NW,323,8.4,11.3,65,0.02,,,0.02,WUHU216HW,2013-01-30 20:11:00,
2013-01-30 14:16:00,25.8,15.4,29.78,NNW,348,11.3,18.1,64,0.02,,,0.02,WUHU216HW,2013-01-30 20:16:00,
2013-01-30 14:21:00,25.8,16.1,29.79,NNW,346,7.1,13.1,66,0.02,,,0.02,WUHU216HW,2013-01-30 20:21:00,
2013-01-30 14:26:00,26.0,15.2,29.79,NNW,343,8.0,12.3,63,0.02,,,0.02,WUHU216HW,2013-01-30 20:26:00,
2013-01-30 14:31:00,26.4,16.3,29.79,NNW,341,5.6,9.8,65,0.02,,,0.02,WUHU216HW,2013-01-30 20:31:00,
2013-01-30 14:36:00,26.7,16.2,29.79,NNW,347,7.4,10.2,64,0.01,,,0.02,WUHU216HW,2013-01-30 20:36:00,
2013-01-30 14:41:00,26.6,15.4,29.79,NNW,336,9.4,14.7,62,0.01,,,0.02,WUHU216HW,2013-01-30 20:41:00,
2013-01-30 14:46:00,26.2,15.0,29.79,NNW,339,8.4,13.1,62,0.01,,,0.02,WUHU216HW,2013-01-30 20:46:00,
2013-01-30 14:51:00,25.8,14.6,29.79,NNW,331,8.8,14.9,62,0.00,,,0.02,WUHU216HW,2013-01-30 20:51:00,
2013-01-30 14:56:00,25.8,14.6,29.79,NNW,339,8.3,16.2,62,0.00,,,0.02,WUHU216HW,2013-01-30 20:56:00,
2013-01-30 15:01:00,25.7,14.9,29.79,NNW,331,9.0,15.6,63,0.00,,,0.02,WUHU216HW,2013-01-30 21:01:00,
2013-01-30 15:06:00,25.5,14.0,29.80,NNW,329,9.8,16.7,61,0.00,,,0.02,WUHU216HW,2013-01-30 21:06:00,
2013-01-30 15:11:00,25.1,13.6,29.80,NW,325,9.6,18.1,61,0.00,,,0.02,WUHU216HW,2013-01-30 21:11:00,
2013-01-30 15:16:00,24.8,14.1,29.80,NNW,334,12.8,18.1,63,0.00,,,0.02,WUHU216HW,2013-01-30 21:16:00,
2013-01-30 15:21:00,24.8,14.1,29.80,NNW,327,8.4,13.1,63,0.00,,,0.02,WUHU216HW,2013-01-30 21:21:00,
2013-01-30 15:26:00,24.8,14.4,29.80,NW,321,8.5,13.3,64,0.00,,,0.02,WUHU216HW,2013-01-30 21:26:00,
2013-01-30 15:31:00,24.4,13.7,29.80,NW,326,10.2,15.2,63,0.00,,,0.02,WUHU216HW,2013-01-30 21:31:00,
2013-01-30 15:36:00,24.2,13.8,29.80,NNW,340,7.2,10.6,64,0.00,,,0.02,WUHU216HW,2013-01-30 21:36:00,
2013-01-30 15:42:00,24.4,14.0,29.80,NNW,336,8.7,10.6,64,0.00,,,0.02,WUHU216HW,2013-01-30 21:42:00,
2013-01-30 15:47:00,24.8,14.8,29.81,NNW,327,7.2,11.8,65,0.00,,,0.02,WUHU216HW,2013-01-30 21:47:00,
2013-01-30 15:52:00,24.9,14.5,29.81,NNW,336,6.1,8.3,64,0.00,,,0.02,WUHU216HW,2013-01-30 21:52:00,
2013-01-30 15:57:00,24.9,14.2,29.81,NW,324,6.9,13.1,63,0.00,,,0.02,WUHU216HW,2013-01-30 21:57:00,
2013-01-30 16:02:00,24.9,13.8,29.81,NNW,328,9.7,15.6,62,0.00,,,0.02,WUHU216HW,2013-01-30 22:02:00,
2013-01-30 16:07:00,24.9,14.2,29.81,North,7,5.7,9.3,63,0.00,,,0.02,WUHU216HW,2013-01-30 22:07:00,
2013-01-30 16:12:00,25.3,14.2,29.81,NNW,327,7.0,16.4,62,0.00,,,0.02,WUHU216HW,2013-01-30 22:12:00,
2013-01-30 16:17:00,24.9,13.8,29.82,NNW,343,7.5,11.3,62,0.00,,,0.02,WUHU216HW,2013-01-30 22:17:00,
2013-01-30 16:22:00,24.9,14.2,29.82,NW,322,7.4,14.7,63,0.00,,,0.02,WUHU216HW,2013-01-30 22:22:00,
2013-01-30 16:27:00,24.9,14.5,29.82,NW,323,7.8,12.1,64,0.00,,,0.02,WUHU216HW,2013-01-30 22:27:00,
2013-01-30 16:32:00,24.8,14.4,29.82,NNW,335,6.8,10.6,64,0.00,,,0.02,WUHU216HW,2013-01-30 22:32:00,
2013-01-30 16:37:00,24.8,14.4,29.82,NNW,338,6.7,11.8,64,0.00,,,0.02,WUHU216HW,2013-01-30 22:37:00,
2013-01-30 16:42:00,24.9,14.9,29.82,NW,323,5.5,7.9,65,0.00,,,0.02,WUHU216HW,2013-01-30 22:42:00,
2013-01-30 16:47:00,25.1,15.1,29.82,WNW,299,4.8,7.9,65,0.00,,,0.02,WUHU216HW,2013-01-30 22:47:00,
2013-01-30 16:52:00,25.1,14.7,29.82,NW,324,5.7,8.7,64,0.00,,,0.02,WUHU216HW,2013-01-30 22:52:00,
2013-01-30 16:57:00,24.9,14.9,29.82,NNW,348,4.9,8.3,65,0.00,,,0.02,WUHU216HW,2013-01-30 22:57:00,
2013-01-30 17:02:00,25.1,15.1,29.82,NW,321,7.3,11.6,65,0.00,,,0.02,WUHU216HW,2013-01-30 23:02:00,
2013-01-30 17:07:00,24.9,14.5,29.83,NNW,333,4.5,7.9,64,0.00,,,0.02,WUHU216HW,2013-01-30 23:07:00,
2013-01-30 17:12:00,24.9,14.2,29.83,NNW,332,7.0,8.5,63,0.00,,,0.02,WUHU216HW,2013-01-30 23:12:00,
2013-01-30 17:17:00,24.6,14.2,29.83,NW,316,6.1,9.3,64,0.00,,,0.02,WUHU216HW,2013-01-30 23:17:00,
2013-01-30 17:22:00,24.2,14.2,29.83,NNW,333,4.7,7.9,65,0.00,,,0.02,WUHU216HW,2013-01-30 23:22:00,
2013-01-30 17:27:00,24.2,14.6,29.83,NW,313,4.0,7.5,66,0.00,,,0.02,WUHU216HW,2013-01-30 23:27:00,
2013-01-30 17:32:00,24.2,14.9,29.83,NW,310,3.1,4.4,67,0.00,,,0.02,WUHU216HW,2013-01-30 23:32:00,
2013-01-30 17:37:00,24.2,14.9,29.83,NW,324,2.3,3.3,67,0.00,,,0.02,WUHU216HW,2013-01-30 23:37:00,
2013-01-30 17:42:00,24.2,14.9,29.83,NNW,332,3.3,6.4,67,0.00,,,0.02,WUHU216HW,2013-01-30 23:42:00,
2013-01-30 17:47:00,24.0,15.0,29.83,NNW,332,3.0,6.2,68,0.00,,,0.02,WUHU216HW,2013-01-30 23:47:00,
2013-01-30 17:52:00,24.0,15.4,29.83,NW,316,2.4,4.9,69,0.00,,,0.02,WUHU216HW,2013-01-30 23:52:00,
2013-01-30 17:57:00,24.0,15.4,29.83,NW,326,2.0,4.6,69,0.00,,,0.02,WUHU216HW,2013-01-30 23:57:00,
2013-01-30 18:02:00,24.2,15.6,29.83,NW,323,2.6,4.6,69,0.00,,,0.02,WUHU216HW,2013-01-31 00:02:00,
2013-01-30 18:07:00,24.0,15.4,29.83,NW,323,2.9,4.6,69,0.00,,,0.02,WUHU216HW,2013-01-31 00:07:00,
2013-01-30 18:12:00,24.0,15.4,29.84,NW,324,2.1,2.9,69,0.00,,,0.02,WUHU216HW,2013-01-31 00:12:00,
2013-01-30 18:17:00,24.2,15.6,29.84,NNW,340,1.0,2.5,69,0.00,,,0.02,WUHU216HW,2013-01-31 00:17:00,
2013-01-30 18:22:00,24.2,15.6,29.84,NW,315,2.0,2.3,69,0.00,,,0.02,WUHU216HW,2013-01-31 00:22:00,
2013-01-30 18:27:00,24.2,15.2,29.84,WNW,302,3.8,5.4,68,0.00,,,0.02,WUHU216HW,2013-01-31 00:27:00,
2013-01-30 18:32:00,23.9,14.9,29.84,NW,321,2.2,2.9,68,0.00,,,0.02,WUHU216HW,2013-01-31 00:32:00,
2013-01-30 18:37:00,23.9,14.9,29.84,NW,318,2.8,6.7,68,0.00,,,0.02,WUHU216HW,2013-01-31 00:37:00,
2013-01-30 18:42:00,23.9,15.3,29.84,NNW,335,2.9,4.1,69,0.00,,,0.02,WUHU216HW,2013-01-31 00:42:00,
2013-01-30 18:47:00,23.7,15.1,29.84,NNW,327,2.5,2.9,69,0.00,,,0.02,WUHU216HW,2013-01-31 00:47:00,
2013-01-30 18:52:00,23.9,15.3,29.84,NW,319,1.7,3.1,69,0.00,,,0.02,WUHU216HW,2013-01-31 00:52:00,
2013-01-30 18:57:00,23.7,15.1,29.84,NW,324,2.7,4.1,69,0.00,,,0.02,WUHU216HW,2013-01-31 00:57:00,
2013-01-30 19:02:00,23.7,15.1,29.84,NNW,328,1.8,3.6,69,0.00,,,0.02,WUHU216HW,2013-01-31 01:02:00,
2013-01-30 19:07:00,23.5,14.9,29.84,NW,325,3.5,6.9,69,0.00,,,0.02,WUHU216HW,2013-01-31 01:07:00,
2013-01-30 19:12:00,23.5,14.9,29.85,NW,307,3.1,4.9,69,0.00,,,0.02,WUHU216HW,2013-01-31 01:12:00,
2013-01-30 19:17:00,23.3,14.7,29.85,NW,325,2.9,4.6,69,0.00,,,0.02,WUHU216HW,2013-01-31 01:17:00,
2013-01-30 19:22:00,23.1,14.5,29.85,NW,319,2.6,4.9,69,0.00,,,0.02,WUHU216HW,2013-01-31 01:22:00,
2013-01-30 19:27:00,23.1,14.5,29.85,NNW,333,3.1,5.2,69,0.00,,,0.02,WUHU216HW,2013-01-31 01:27:00,
2013-01-30 19:32:00,23.1,14.8,29.85,NW,316,2.5,3.1,70,0.00,,,0.02,WUHU216HW,2013-01-31 01:32:00,
2013-01-30 19:37:00,23.1,14.8,29.85,NNW,335,3.0,3.6,70,0.00,,,0.02,WUHU216HW,2013-01-31 01:37:00,
2013-01-30 19:42:00,23.1,14.8,29.85,NW,314,2.3,6.4,70,0.00,,,0.02,WUHU216HW,2013-01-31 01:42:00,
2013-01-30 19:47:00,22.8,14.5,29.85,NNW,333,2.4,3.9,70,0.00,,,0.02,WUHU216HW,2013-01-31 01:47:00,
2013-01-30 19:52:00,22.8,14.5,29.85,NNW,345,2.3,3.9,70,0.00,,,0.02,WUHU216HW,2013-01-31 01:52:00,
2013-01-30 19:57:00,22.4,14.2,29.85,NNW,334,3.4,5.4,70,0.00,,,0.02,WUHU216HW,2013-01-31 01:57:00,
2013-01-30 20:02:00,22.1,13.9,29.85,NNW,332,3.9,5.4,70,0.00,,,0.02,WUHU216HW,2013-01-31 02:02:00,
2013-01-30 20:07:00,21.9,13.7,29.85,NNW,343,2.8,4.9,70,0.00,,,0.02,WUHU216HW,2013-01-31 02:07:00,
2013-01-30 20:12:00,21.7,13.5,29.85,NNW,342,3.1,7.9,70,0.00,,,0.02,WUHU216HW,2013-01-31 02:12:00,
2013-01-30 20:17:00,21.3,13.1,29.86,NNW,337,6.0,9.3,70,0.00,,,0.02,WUHU216HW,2013-01-31 02:17:00,
2013-01-30 20:22:00,21.2,13.3,29.86,NNW,340,4.8,7.9,71,0.00,,,0.02,WUHU216HW,2013-01-31 02:22:00,
2013-01-30 20:27:00,20.8,13.2,29.86,NNW,339,4.2,6.4,72,0.00,,,0.02,WUHU216HW,2013-01-31 02:27:00,
2013-01-30 20:32:00,20.6,13.0,29.86,NNW,345,4.2,7.2,72,0.00,,,0.02,WUHU216HW,2013-01-31 02:32:00,
2013-01-30 20:37:00,20.6,13.0,29.86,NNW,339,2.8,4.6,72,0.00,,,0.02,WUHU216HW,2013-01-31 02:37:00,
2013-01-30 20:42:00,20.4,12.9,29.86,NNW,335,3.7,6.2,72,0.00,,,0.02,WUHU216HW,2013-01-31 02:42:00,
2013-01-30 20:47:00,20.3,13.1,29.86,NNW,333,4.2,6.2,73,0.00,,,0.02,WUHU216HW,2013-01-31 02:47:00,
2013-01-30 20:52:00,20.3,13.1,29.87,NNW,334,4.4,5.4,73,0.00,,,0.02,WUHU216HW,2013-01-31 02:52:00,
2013-01-30 20:57:00,20.6,13.4,29.87,North,351,1.5,2.3,73,0.00,,,0.02,WUHU216HW,2013-01-31 02:57:00,
2013-01-30 21:02:00,20.6,13.4,29.86,NNW,342,2.6,5.4,73,0.00,,,0.02,WUHU216HW,2013-01-31 03:02:00,
2013-01-30 21:07:00,20.4,12.5,29.86,NNW,348,4.0,5.9,71,0.00,,,0.02,WUHU216HW,2013-01-31 03:07:00,
2013-01-30 21:12:00,19.9,12.1,29.86,NNW,335,5.5,7.2,71,0.00,,,0.02,WUHU216HW,2013-01-31 03:12:00,
2013-01-30 21:17:00,19.7,12.2,29.87,NNW,333,5.5,7.2,72,0.00,,,0.02,WUHU216HW,2013-01-31 03:17:00,
2013-01-30 21:22:00,19.5,12.0,29.87,NNW,343,3.9,7.7,72,0.00,,,0.02,WUHU216HW,2013-01-31 03:22:00,
2013-01-30 21:27:00,19.5,12.0,29.86,NNW,328,4.3,7.9,72,0.00,,,0.02,WUHU216HW,2013-01-31 03:27:00,
2013-01-30 21:32:00,19.2,11.7,29.86,NNW,333,5.6,8.3,72,0.00,,,0.02,WUHU216HW,2013-01-31 03:32:00,
2013-01-30 21:37:00,19.0,11.5,29.86,NNW,341,5.2,7.2,72,0.00,,,0.02,WUHU216HW,2013-01-31 03:37:00,
2013-01-30 21:42:00,18.8,11.3,29.87,NNW,334,3.1,6.2,72,0.00,,,0.02,WUHU216HW,2013-01-31 03:42:00,
2013-01-30 21:47:00,18.8,11.6,29.87,NNW,340,3.2,5.4,73,0.00,,,0.02,WUHU216HW,2013-01-31 03:47:00,
2013-01-30 21:52:00,18.6,11.1,29.87,NW,317,4.9,7.9,72,0.00,,,0.02,WUHU216HW,2013-01-31 03:52:00,
2013-01-30 21:57:00,18.5,11.0,29.87,NNW,337,4.4,6.7,72,0.00,,,0.02,WUHU216HW,2013-01-31 03:57:00,
2013-01-30 22:02:00,18.6,11.4,29.87,NNW,342,3.9,6.9,73,0.00,,,0.02,WUHU216HW,2013-01-31 04:02:00,
2013-01-30 22:07:00,18.5,10.7,29.87,NNW,335,4.4,6.4,71,0.00,,,0.02,WUHU216HW,2013-01-31 04:07:00,
2013-01-30 22:12:00,18.6,11.4,29.88,NW,320,3.8,6.4,73,0.00,,,0.02,WUHU216HW,2013-01-31 04:12:00,
2013-01-30 22:17:00,18.5,11.0,29.88,NNW,339,2.7,6.2,72,0.00,,,0.02,WUHU216HW,2013-01-31 04:17:00,
2013-01-30 22:22:00,18.5,11.0,29.88,NNW,334,3.1,4.9,72,0.00,,,0.02,WUHU216HW,2013-01-31 04:22:00,
2013-01-30 22:27:00,18.5,11.0,29.88,NNW,330,1.9,3.9,72,0.00,,,0.02,WUHU216HW,2013-01-31 04:27:00,
2013-01-30 22:32:00,18.5,11.3,29.88,NNW,340,1.6,2.5,73,0.00,,,0.02,WUHU216HW,2013-01-31 04:32:00,
2013-01-30 22:37:00,18.5,11.3,29.88,NNW,340,2.3,4.4,73,0.00,,,0.02,WUHU216HW,2013-01-31 04:37:00,
2013-01-30 22:42:00,18.5,11.3,29.88,NNW,336,3.2,4.1,73,0.00,,,0.02,WUHU216HW,2013-01-31 04:42:00,
2013-01-30 22:47:00,18.5,11.0,29.88,NNW,339,3.4,7.2,72,0.00,,,0.02,WUHU216HW,2013-01-31 04:47:00,
2013-01-30 22:52:00,18.3,10.5,29.88,NNW,337,5.3,8.7,71,0.00,,,0.02,WUHU216HW,2013-01-31 04:52:00,
2013-01-30 22:57:00,17.9,10.1,29.88,NNW,327,4.5,8.7,71,0.00,,,0.02,WUHU216HW,2013-01-31 04:57:00,
2013-01-30 23:02:00,17.9,10.4,29.88,NNW,343,3.2,6.4,72,0.00,,,0.02,WUHU216HW,2013-01-31 05:02:00,
2013-01-30 23:07:00,17.9,10.1,29.89,NNW,335,4.2,8.3,71,0.00,,,0.02,WUHU216HW,2013-01-31 05:07:00,
2013-01-30 23:12:00,17.7,9.9,29.89,NNW,342,4.1,6.9,71,0.00,,,0.02,WUHU216HW,2013-01-31 05:12:00,
2013-01-30 23:17:00,17.9,10.4,29.89,North,350,3.7,7.2,72,0.00,,,0.02,WUHU216HW,2013-01-31 05:17:00,
2013-01-30 23:22:00,17.7,9.9,29.89,North,349,5.7,7.2,71,0.00,,,0.02,WUHU216HW,2013-01-31 05:22:00,
2013-01-30 23:27:00,17.6,9.5,29.89,NNW,339,5.7,8.7,70,0.00,,,0.02,WUHU216HW,2013-01-31 05:27:00,
2013-01-30 23:32:00,17.4,9.6,29.89,NNW,344,5.5,7.9,71,0.00,,,0.02,WUHU216HW,2013-01-31 05:32:00,
2013-01-30 23:37:00,17.0,8.9,29.89,North,350,5.6,10.6,70,0.00,,,0.02,WUHU216HW,2013-01-31 05:37:00,
2013-01-30 23:42:00,17.0,9.2,29.90,NNW,339,2.3,6.4,71,0.00,,,0.02,WUHU216HW,2013-01-31 05:42:00,
2013-01-30 23:47:00,17.2,9.4,29.90,NNW,328,2.3,3.6,71,0.00,,,0.02,WUHU216HW,2013-01-31 05:47:00,
2013-01-30 23:53:00,17.4,9.6,29.90,NW,326,3.9,6.2,71,0.00,,,0.02,WUHU216HW,2013-01-31 05:53:00,
2013-01-30 23:58:00,17.2,9.4,29.90,NNW,334,4.3,8.5,71,0.00,,,0.02,WUHU216HW,2013-01-31 05:58:00,